Location: Kalisz
(51.7636°N, 18.0893°E)
Time: 22:50:30
(UTC+02:00)

ISS - Pass Details

Date: 30 March 2019
Orbit: 408 x 410 km, 51.6° (Epoch: 24 April)

Event Time Altitude Azimuth Distance (km) Brightness Sun altitude
Rises 19:14:40 0° 269° (W) 2,338 1.6 -9.5°
Reaches altitude 10° 19:16:45 10° 269° (W) 1,476 0.3 -9.8°
Maximum altitude 19:20:04 89° 346° (NNW) 415 -3.8 -10.3°
Enters shadow 19:22:41 15° 90° (E) 1,190 -2.0 -10.6°
